Theta_e
314 313 312 312 311 310 310 310 307 306 305 307 308 307 306 305 304 305 305 306 306 306 305 304 305 306 307 307 307 307 306 306 307 306 307 307 306 306 305 305 303 303 304 304 303 303 302 301 299 298 297 285
313 312 312 311 310 309 309 308 307 306 306 308 309 308 307 306 304 304 304 304 304 305 304 303 304 306 306 307 307 307 306 306 306 306 306 306 306 305 304 304 302 302 302 302 301 301 301 301 298 297 296 284
307 311 311 310 309 309 307 307 308 309 308 307 305 305 304 304 304 304 304 304 304 305 304 303 304 306 307 307 308 306 305 305 305 305 306 306 305 304 304 303 301 300 301 301 301 300 299 298 296 296 290 283
301 309 308 308 307 307 307 306 305 304 303 302 302 301 301 300 296 297 297 302 299 302 302 303 302 305 306 306 306 305 304 304 304 304 304 304 303 303 303 302 299 298 299 299 299 299 298 297 296 285 282 282
298 301 302 300 304 303 302 301 301 300 298 296 296 296 296 294 291 291 292 292 293 297 295 299 301 302 304 305 305 304 303 303 303 304 303 303 302 301 300 300 298 298 298 298 298 298 297 297 285 284 282 282
293 292 295 293 293 294 294 296 295 292 291 293 288 293 290 289 290 289 290 291 294 291 293 293 299 299 301 302 303 304 302 302 303 304 303 303 302 301 299 300 288 289 295 298 297 297 297 287 282 282 282 282
291 291 290 290 290 291 293 292 291 288 290 288 288 288 288 290 288 288 288 290 292 291 293 292 295 297 298 299 300 301 299 300 301 302 302 302 301 300 299 289 284 284 282 282 294 296 286 281 281 281 282 282
290 290 289 289 289 288 288 287 288 287 287 287 288 288 287 287 288 287 286 290 291 290 287 287 291 293 293 293 294 297 291 294 295 297 297 297 297 292 288 286 284 284 283 283 282 282 281 282 282 281 282 282
289 289 290 289 288 287 287 287 286 286 286 286 287 287 287 287 287 286 285 285 285 285 285 285 285 285 285 286 285 292 285 286 286 287 284 285 287 284 285 284 284 283 283 285 283 282 282 282 282 282 284 281
290 289 289 289 289 287 287 286 286 285 285 286 286 287 287 287 285 285 285 285 284 284 284 284 284 284 284 284 284 287 284 284 284 284 284 284 284 284 284 283 283 283 285 283 283 283 282 282 282 282 282 281
287 287 287 288 289 287 286 286 285 285 284 285 286 286 287 285 284 283 283 283 283 283 283 283 283 283 283 283 283 285 283 283 283 283 283 283 283 283 283 283 283 283 283 282 282 283 282 282 282 282 282 281
285 285 285 287 288 287 289 286 284 284 284 285 284 286 286 286 283 282 282 281 282 282 282 282 282 282 282 283 282 283 283 282 282 282 283 283 283 283 283 283 283 283 283 283 282 282 282 282 282 282 281 281
283 283 284 284 284 285 288 283 283 284 284 283 284 284 284 285 281 281 280 280 280 280 280 280 281 281 281 281 281 282 281 282 281 281 282 282 282 282 282 282 282 284 283 282 283 282 282 282 282 282 282 281
282 282 282 282 282 284 285 282 283 283 282 283 283 282 282 283 282 280 279 279 279 279 279 279 280 280 280 280 280 280 280 281 281 281 281 281 281 281 281 281 282 283 282 282 282 282 282 282 282 282 281 281
281 282 281 282 281 282 282 282 283 282 282 282 282 282 281 281 281 281 279 278 278 278 278 278 278 278 279 278 279 279 279 280 280 280 279 280 280 280 280 281 281 281 281 281 281 282 281 282 282 281 282 281
280 280 281 281 280 281 281 282 280 280 281 283 281 281 280 279 279 281 278 278 278 279 277 277 277 277 278 277 278 278 278 278 279 279 279 279 280 279 279 279 279 280 280 279 280 280 280 281 281 281 281 281
279 279 279 279 279 280 282 280 279 279 279 280 280 280 279 279 279 279 278 277 278 279 276 277 277 277 278 277 277 277 277 277 277 277 277 277 279 277 278 277 278 280 279 278 279 279 280 280 280 281 281 281
278 278 279 280 278 280 279 279 278 280 278 279 279 278 278 278 279 278 277 277 277 276 276 277 276 276 276 276 276 276 276 275 275 275 275 276 276 277 277 276 276 277 277 278 278 278 279 280 280 280 280 280
279 278 277 277 278 278 278 279 278 277 277 277 277 278 276 277 279 278 277 277 277 276 276 276 276 276 275 275 275 274 275 274 274 274 274 276 274 274 275 275 276 277 276 277 277 278 279 278 279 280 279 280
277 277 277 277 280 278 277 277 277 277 276 276 276 277 276 277 278 277 276 277 277 275 275 276 275 275 275 275 274 274 274 274 273 274 274 274 274 273 273 275 274 276 275 276 276 277 277 277 279 278 278 279
277 277 277 277 277 278 277 276 276 276 276 276 276 276 276 276 278 276 276 276 276 276 275 276 275 275 274 274 273 273 273 273 274 273 273 273 274 274 273 273 273 274 274 274 275 276 276 276 277 277 278 278
276 277 277 276 276 279 276 276 276 276 276 275 275 275 275 276 276 276 275 275 276 275 277 276 275 273 273 273 273 272 272 272 273 273 273 272 273 274 272 272 272 272 273 274 274 274 275 275 276 277 277 278
276 276 276 276 275 275 276 275 275 276 275 275 275 275 275 275 275 275 274 275 276 275 275 274 274 273 273 273 272 272 271 271 272 272 272 271 272 273 272 272 272 272 272 273 273 273 274 276 275 276 276 278
274 274 275 274 274 274 274 274 276 276 274 275 274 276 274 274 273 273 274 274 275 274 275 273 273 272 272 272 272 271 270 270 271 271 271 271 271 271 272 272 272 272 272 272 272 273 274 274 274 275 276 276
274 273 273 273 273 273 273 274 275 275 274 275 275 274 274 273 272 272 272 275 273 274 274 273 272 271 271 271 272 271 270 270 271 272 271 271 271 270 270 270 271 271 272 270 270 271 271 272 274 277 278 277
274 274 274 273 272 272 272 272 272 272 274 274 274 273 273 272 272 271 272 274 273 274 272 271 271 271 271 270 271 271 271 271 272 271 270 270 269 270 270 268 271 271 271 267 268 268 268 271 273 276 277 277
273 273 274 273 273 272 272 273 273 273 274 273 272 272 272 272 272 271 271 272 273 273 272 271 270 270 270 270 271 269 269 269 269 270 269 269 268 268 269 269 271 270 270 267 269 269 269 267 269 272 274 275
274 274 274 275 273 273 272 271 275 272 271 271 271 272 272 271 271 271 271 271 270 271 271 271 270 270 269 269 270 269 268 268 269 269 268 268 269 269 265 267 268 270 270 269 268 263 266 267 268 265 270 269
274 275 273 272 272 273 272 272 271 270 270 270 271 272 271 270 271 271 271 271 270 271 272 270 270 269 269 269 268 269 268 268 268 268 268 268 268 267 266 266 267 268 270 269 271 267 266 262 265 264 267 268
275 275 273 271 271 269 269 268 268 268 268 268 268 269 270 270 270 270 270 270 269 270 272 270 270 269 268 268 268 269 268 268 267 267 267 268 268 266 267 267 266 265 269 270 269 270 270 269 263 264 265 267
276 273 271 271 270 270 269 268 269 268 269 269 269 271 270 269 270 270 269 269 269 270 270 271 270 269 268 268 267 270 268 267 267 267 267 268 267 267 268 267 264 265 266 268 267 269 269 269 269 269 266 260
Wind_Speed
20 20 17 16 15 12 12 11 10 10 11 12 13 13 13 12 12 11 11 11 12 13 14 14 14 14 13 12 12 12 12 13 12 11 11 11 10 11 11 12 12 12 12 12 12 12 12 13 13 13 11 6
18 17 17 16 14 12 10 10 11 11 11 13 14 14 13 12 11 10 10 10 12 12 13 14 14 15 13 13 12 12 13 13 13 11 11 11 10 10 11 11 12 13 13 12 13 13 12 11 12 11 9 5
10 15 15 14 12 11 12 13 15 16 17 17 16 15 14 14 14 13 12 14 15 15 16 16 16 15 13 13 13 12 12 13 13 12 11 11 11 10 10 10 11 13 13 13 13 13 12 12 11 9 5 4
8 11 16 16 17 19 20 20 20 19 18 18 17 17 17 16 12 12 10 17 13 18 18 17 15 15 14 15 15 14 13 13 12 12 12 11 12 11 10 10 11 11 12 13 13 13 13 12 9 4 3 3
9 10 13 12 16 19 20 19 19 18 17 15 14 14 15 13 10 9 8 10 10 14 10 16 17 18 18 17 16 17 16 15 14 13 13 12 12 12 11 10 9 10 10 11 12 13 12 10 6 4 3 4
7 8 11 10 10 10 12 14 13 11 9 10 8 13 10 8 7 7 7 8 9 7 9 10 18 17 17 17 17 17 18 18 17 15 14 14 13 14 12 10 5 5 7 10 10 11 11 6 5 4 5 4
9 10 9 10 9 8 12 10 10 9 9 8 8 8 8 7 7 7 7 7 9 8 13 13 16 17 17 17 18 17 17 17 17 18 16 16 15 16 15 8 6 6 5 6 8 8 6 5 5 5 5 5
8 7 8 8 7 8 7 8 8 8 8 8 8 7 7 7 7 7 7 9 14 12 9 9 14 17 16 16 16 18 11 14 14 16 16 16 15 9 6 7 7 6 7 6 5 5 5 5 5 4 5 5
7 6 7 7 7 7 6 6 6 6 7 7 8 7 6 6 6 7 7 7 8 8 8 8 8 8 8 7 8 12 7 7 8 8 8 8 8 6 6 6 7 6 6 6 5 5 6 5 5 5 5 5
7 8 7 7 6 7 6 6 6 6 7 7 7 6 6 7 8 8 7 7 8 8 8 8 7 7 7 7 7 7 7 6 6 7 6 6 6 6 6 5 5 4 4 6 6 7 5 5 5 6 6 5
8 8 7 6 7 8 7 6 7 7 6 7 7 7 7 8 7 7 7 8 8 8 7 7 7 7 6 7 7 7 6 7 6 6 6 6 5 5 5 5 5 5 5 4 4 5 5 4 5 5 6 6
9 7 7 7 7 7 8 7 7 6 6 6 7 7 7 6 6 7 7 7 8 7 7 7 7 6 7 7 7 6 6 7 7 7 6 6 6 6 5 5 5 5 4 5 4 4 4 4 5 4 5 6
6 6 7 7 7 7 7 6 6 5 5 6 6 6 7 6 7 6 6 7 7 6 6 6 7 7 7 7 7 8 7 7 7 7 7 7 6 6 6 6 6 5 5 5 5 5 4 4 5 5 5 5
6 6 6 6 6 5 5 5 5 4 6 5 5 6 5 6 5 6 6 6 6 6 6 6 6 6 6 7 7 7 8 8 7 7 7 7 7 7 7 7 7 6 6 6 6 5 6 5 5 5 5 5
6 6 6 6 5 5 5 4 4 5 5 5 5 5 6 5 5 5 5 5 5 5 5 5 5 5 5 6 6 6 6 6 7 6 6 7 7 7 7 7 7 7 7 6 6 5 5 6 6 6 6 5
6 6 5 5 5 5 5 4 5 5 5 5 4 4 4 4 5 5 5 5 6 5 5 5 5 5 5 6 5 5 5 6 6 6 6 6 5 6 5 6 6 6 6 7 6 6 6 6 6 6 6 6
5 4 4 5 5 5 4 5 5 5 5 5 5 5 5 5 4 5 5 5 5 5 5 5 5 5 5 5 6 5 6 6 6 6 6 7 6 6 5 6 6 6 5 6 7 6 6 6 6 6 6 6
6 5 4 4 5 4 4 4 5 5 4 4 4 4 5 5 5 5 5 5 5 5 4 5 5 5 6 5 5 5 6 6 6 6 6 7 6 7 7 7 6 6 7 6 5 6 6 5 6 6 6 6
6 5 5 5 5 5 4 4 4 4 4 4 4 4 4 5 5 5 5 5 5 6 5 5 5 5 5 5 5 5 5 6 6 6 6 6 8 6 6 6 6 7 6 7 7 6 5 6 6 6 6 6
4 4 5 4 5 5 4 5 5 5 4 4 4 4 4 5 5 5 6 6 5 5 5 5 5 5 6 6 6 6 6 6 7 7 6 6 7 8 8 7 7 6 7 7 8 7 6 6 6 6 6 6
4 5 4 5 5 5 4 5 5 5 4 4 4 5 5 5 6 6 7 7 6 4 5 5 4 5 5 5 6 6 7 7 7 8 8 7 7 6 8 8 9 8 7 8 8 8 8 8 7 6 6 6
3 4 3 4 4 4 5 5 5 5 5 5 5 5 5 5 6 7 7 7 7 5 5 4 4 4 5 5 5 6 7 7 7 7 7 9 8 8 8 8 9 10 10 9 9 9 9 9 6 7 7 7
3 3 3 2 3 3 3 4 5 3 5 4 5 5 5 6 6 7 7 7 7 6 5 5 5 5 5 5 5 6 6 7 8 8 8 9 9 7 7 7 8 9 10 10 10 10 10 7 7 8 7 7
2 2 3 3 3 3 3 4 3 4 3 3 4 3 4 5 5 6 7 7 7 6 5 5 5 5 5 6 5 6 8 8 8 9 10 9 10 11 8 6 7 8 11 10 9 9 8 7 9 9 8 7
2 2 3 2 3 3 3 4 3 3 3 4 3 3 3 4 5 5 5 5 6 5 5 5 5 5 5 5 5 5 6 7 7 7 7 7 7 10 10 8 8 8 9 9 10 8 8 8 6 8 7 5
0 0 0 1 3 2 4 4 4 4 3 2 3 3 3 3 3 4 4 4 5 4 4 5 5 5 5 6 6 6 6 7 8 7 7 8 8 7 8 8 9 8 11 6 9 12 14 8 5 3 1 2
1 1 0 1 2 2 2 3 2 2 2 2 3 4 2 3 2 3 4 3 5 4 3 3 4 4 4 5 6 6 7 7 7 7 8 9 9 9 6 7 6 7 9 7 10 7 7 7 12 2 4 3
3 3 1 1 2 3 2 3 3 2 3 3 4 4 2 3 1 3 3 3 4 3 2 3 3 3 4 4 5 5 5 6 7 8 8 9 9 9 9 8 7 8 8 6 9 6 4 7 5 11 3 11
2 2 1 1 2 2 1 1 1 1 1 1 3 3 2 2 1 2 2 2 3 3 3 3 2 3 3 3 5 4 4 5 6 7 6 8 7 8 8 9 8 7 7 6 6 4 5 4 3 2 10 15
3 3 3 2 2 2 1 2 2 2 2 3 3 3 2 2 1 1 1 2 3 3 3 2 2 2 3 3 4 4 3 4 5 6 7 7 6 8 7 7 8 8 7 6 7 6 2 4 2 8 9 8
4 4 4 4 4 3 3 3 3 2 2 3 3 3 3 2 1 0 1 2 1 2 2 1 2 2 3 2 3 3 4 4 5 5 6 6 6 6 7 7 6 8 7 7 4 5 6 7 7 6 7 2
Wind_Direction
52 54 55 62 56 51 53 53 48 40 36 36 34 32 28 23 16 16 20 21 21 23 22 17 12 8 10 10 13 13 8 2 3 3 5 10 12 11 14 13 16 15 14 13 13 12 15 17 15 12 21 8
54 56 57 56 57 54 50 42 38 34 34 31 27 23 18 11 4 6 11 17 15 18 19 13 7 1 6 6 10 8 4 3 3 2 1 6 6 6 11 13 10 8 10 11 11 9 10 13 10 10 22 8
46 52 51 49 47 43 33 32 34 35 36 34 30 26 20 20 14 1 359 7 8 6 7 1 356 351 1 360 360 359 1 360 357 359 358 359 357 360 4 8 9 3 0 3 5 6 6 6 6 13 28 3
39 40 38 34 35 40 43 43 43 41 40 36 34 29 27 28 26 17 20 26 20 22 19 12 13 9 5 5 3 357 355 355 350 349 351 353 354 355 357 3 1 355 352 354 356 357 358 358 10 15 354 359
27 27 35 35 45 44 46 46 44 42 38 34 29 32 30 32 30 28 28 26 24 21 13 13 16 16 15 14 10 6 0 354 345 343 343 345 349 350 353 356 2 347 340 342 346 347 347 357 0 342 351 341
32 32 41 46 46 48 44 43 42 38 35 31 25 27 28 27 26 26 24 23 21 14 12 9 16 16 16 14 12 10 8 4 356 344 336 340 344 346 348 356 5 347 335 328 328 333 337 354 336 331 333 335
43 45 51 46 45 43 43 38 38 36 33 30 27 27 26 25 23 26 24 22 22 18 17 15 16 16 17 15 12 12 9 7 5 5 360 358 357 359 355 354 351 344 333 324 323 330 332 325 318 315 316 313
50 51 57 56 51 50 46 39 38 34 32 29 27 25 26 22 20 21 21 17 18 19 14 8 11 13 14 11 8 9 7 2 360 3 1 1 6 2 353 349 349 345 332 322 314 312 310 314 307 304 292 296
53 58 65 64 63 61 55 52 45 40 37 33 27 26 27 22 24 23 20 16 15 16 11 11 8 5 6 1 4 3 2 358 353 358 355 352 353 354 346 346 339 341 330 325 322 315 310 311 309 302 297 286
50 51 51 52 52 60 51 48 45 38 33 30 27 25 25 24 27 21 19 17 15 13 10 11 7 2 358 0 1 359 353 352 352 350 347 348 345 339 338 331 326 322 315 313 317 314 309 305 307 304 300 298
48 44 40 44 45 51 43 37 41 34 27 27 27 25 24 30 22 20 17 14 13 11 7 8 3 359 356 359 357 355 352 347 345 345 344 341 336 326 333 331 330 329 325 319 315 310 303 303 300 302 301 301
48 39 39 39 38 45 44 41 39 30 26 24 28 26 21 35 31 21 16 12 11 5 5 6 358 353 357 358 354 350 352 347 344 343 344 339 338 341 337 334 328 327 326 323 320 317 314 312 310 304 298 293
49 43 44 39 38 37 40 39 34 29 26 32 25 26 23 24 27 24 20 14 5 359 5 358 358 356 355 356 351 350 349 352 343 343 342 340 336 336 333 333 330 330 328 325 324 327 320 320 316 315 310 303
51 41 49 39 40 35 43 41 31 30 36 26 29 24 23 21 34 27 21 9 358 7 357 356 355 357 355 355 350 353 349 346 343 339 339 338 338 338 334 333 326 330 324 328 324 324 324 320 314 308 305 305
49 43 45 36 32 36 38 34 38 40 36 33 29 23 19 22 19 25 14 13 359 2 356 353 355 355 352 354 355 349 344 340 342 337 336 334 333 334 328 327 322 325 323 321 322 318 321 311 315 310 305 301
50 44 40 34 31 34 29 33 39 38 34 34 30 26 26 22 20 19 13 8 359 2 354 355 357 350 358 355 348 348 342 340 337 337 329 330 330 323 315 321 321 321 324 321 316 317 315 310 313 309 304 305
57 49 40 39 34 30 31 32 34 36 26 23 20 16 18 18 21 23 14 6 4 355 355 351 355 0 359 351 346 344 342 342 336 341 338 335 334 326 329 327 327 324 320 318 319 320 310 311 310 304 306 298
39 35 34 37 36 32 30 35 35 31 24 22 17 16 10 12 14 17 8 5 359 359 354 355 360 356 356 349 347 343 346 350 343 344 343 335 340 335 339 330 327 327 324 314 307 311 307 309 299 299 299 292
31 29 27 23 28 25 26 25 33 22 22 23 14 19 12 12 9 15 5 359 1 356 354 355 358 1 354 347 348 351 349 352 343 350 344 340 340 329 332 323 327 323 315 316 315 309 308 304 299 295 288 286
31 26 28 20 18 19 17 17 20 12 13 13 10 21 16 12 7 14 2 354 358 358 349 358 359 351 353 352 355 354 351 356 353 349 343 346 341 336 337 332 327 324 319 316 313 310 305 297 295 289 288 288
22 18 23 20 7 11 5 11 0 359 4 11 14 13 16 9 9 9 360 353 351 357 340 1 4 346 357 353 357 356 354 358 350 351 343 345 344 341 332 333 327 329 325 318 312 308 304 299 296 288 285 286
21 14 6 22 2 9 2 3 348 347 1 5 7 14 10 11 10 7 358 353 349 354 343 5 4 353 357 354 359 359 356 352 348 348 347 342 341 348 337 333 336 329 327 321 314 310 303 298 292 294 292 282
14 9 357 11 5 6 355 4 336 342 0 352 17 11 9 16 13 3 360 353 353 359 351 4 4 5 354 358 357 1 357 351 351 348 347 345 336 344 335 332 329 326 321 320 312 305 300 298 301 290 281 280
9 20 2 9 354 1 359 349 335 342 348 0 25 7 22 22 18 4 357 354 354 0 358 7 358 4 353 357 358 1 359 352 354 344 346 344 342 337 336 345 327 335 326 316 306 302 304 301 294 284 272 283
35 6 353 342 19 339 330 330 337 332 336 7 20 15 29 30 25 8 356 355 356 357 4 2 356 360 358 353 358 4 353 344 345 343 345 336 344 334 337 343 333 342 327 330 323 317 304 302 267 268 284 290
50 188 143 253 284 308 313 325 332 326 340 8 17 7 31 28 26 11 359 357 360 358 7 7 0 355 355 358 354 357 347 345 349 339 350 344 342 336 346 336 336 346 343 2 343 335 322 324 294 264 312 3
195 220 269 157 270 290 290 291 284 303 320 11 11 348 28 17 31 13 3 10 2 2 3 9 5 350 351 2 356 352 351 343 350 346 353 354 342 335 351 327 337 353 358 332 320 304 299 334 339 307 345 345
193 198 212 251 237 265 234 253 308 13 350 4 354 330 352 358 43 11 17 18 8 355 3 7 2 355 360 3 358 345 346 348 348 355 354 349 344 345 339 336 338 353 341 349 331 360 329 310 315 324 48 344
193 208 288 321 319 286 304 322 336 340 313 338 328 322 334 308 29 11 36 24 11 3 355 7 0 16 358 4 352 341 349 355 354 353 354 340 343 353 331 333 330 344 331 342 337 354 335 338 354 276 324 331
194 211 189 216 227 281 243 268 293 298 307 319 316 301 283 309 334 43 46 26 19 27 352 16 5 22 10 353 353 332 10 356 353 342 356 335 350 339 330 331 334 329 332 341 349 319 274 294 300 323 318 347
195 205 199 205 213 211 219 237 254 191 231 251 268 286 294 276 296 58 88 3 38 36 358 15 3 27 1 352 345 335 23 1 344 342 344 335 343 327 335 335 333 324 329 335 332 320 341 329 315 304 326 274